Location: Beaver Brook Station
(42.3793°N, 71.2203°W)
Time: 13:52:29
(UTC+00:00)

Daily predictions for brighter satellites

Satellite Brightness Start Highest point End
(mag) Time Altitude Azimuth Time Altitude Azimuth Time Altitude Azimuth
Envisat 3.4 22:02:55 10° S 22:07:58 70° WSW 22:13:03 10° NNW
Cosmos 1340 3.4 22:08:32 10° N 22:11:58 31° ENE 22:15:21 10° SE
YAOGAN 1 4.2 22:09:48 10° E 22:12:06 14° ENE 22:14:24 10° NNE
USA 281 3.2 22:06:04 10° SSE 22:12:37 78° ENE 22:19:12 10° NNW
ADEOS Rocket 3.8 22:07:02 10° N 22:13:34 69° WNW 22:20:46 10° SSW
CZ-4 R/B 2.9 22:14:44 10° ESE 22:17:06 16° ENE 22:19:29 10° NNE
Cosmos 1697 Rocket 3.5 22:12:38 10° SSE 22:17:24 29° ESE 22:22:11 10° NE
Cosmos 2228 3.3 22:13:41 10° SSW 22:17:55 72° W 22:22:12 10° N
Okean O Rocket 1.7 22:15:08 10° S 22:19:29 81° WSW 22:23:52 10° NNW
Cosmos 1726 Rocket 3.5 22:15:12 10° S 22:19:32 86° E 22:23:57 10° N
SL-4 R/B 3.4 22:17:43 10° NW 22:20:25 20° N 22:23:13 10° ENE
Cosmos 44 4.1 22:17:01 10° SW 22:21:21 47° NW 22:25:59 10° NNE
Cosmos 1346 Rocket 4.0 22:18:51 10° NNE 22:21:59 22° ENE 22:25:05 10° ESE
Cosmos 2058 4.0 22:21:40 10° NNE 22:24:56 22° ENE 22:28:11 10° SE
BREEZE-M R/B 4.2 22:23:50 10° NW 22:27:13 35° NNE 22:32:41 12° ENE
Atlas Centaur 2 4.2 22:22:55 10° SW 22:29:57 33° S 22:37:19 10° ESE
NOAA 11 4.1 22:25:03 10° SSE 22:30:27 72° ENE 22:35:53 10° N
Meteor 2-8 Rocket 4.4 22:25:12 10° S 22:31:11 64° E 22:37:17 10° NNE
YAOGAN 6 4.4 22:27:50 10° SSW 22:31:15 38° W 22:34:43 10° NNW
Cosmos 1315 Rocket 3.9 22:28:30 10° SE 22:31:42 24° E 22:34:56 10° NE
S3M 4.4 22:28:50 10° SSE 22:34:24 38° E 22:40:02 10° NNE
Aureole 3 2.5 22:34:20 10° S 22:37:27 84° E 22:40:26 10° N
Cosmos 1992 Rocket 4.3 22:33:11 10° S 22:38:05 43° ESE 22:43:00 10° NNE
Cosmos 220 Rocket 4.3 22:35:56 10° S 22:40:06 47° ESE 22:44:20 10° NNE
Cosmos 1455 3.0 22:37:54 10° SSE 22:41:10 29° E 22:44:30 10° NNE
Cosmos 1980 Rocket 3.2 22:36:47 10° SSE 22:41:12 24° ESE 22:44:54 13° NE
USA 305 3.6 22:40:06 10° NW 22:44:09 38° NNE 22:46:41 19° E
Cosmos 2297 Rocket 2.2 22:39:20 10° NNW 22:45:02 86° ENE 22:50:42 10° SSE
CZ-2C R/B 3.8 22:40:21 10° SE 22:45:33 36° ENE 22:50:38 10° N
In-Cosmos 22 Rocket 4.0 22:41:19 10° N 22:46:44 75° E 22:52:13 10° SSE
SKYMED 2 3.5 22:44:52 10° NNE 22:49:13 70° E 22:53:32 10° S
USA 306 3.5 22:46:36 10° NW 22:50:41 41° NNE 22:52:56 22° E
Okean-O 2.8 22:52:48 10° SSE 22:57:05 50° ENE 23:01:23 10° N
Meteor 2-10 Rocket 3.5 22:52:35 10° S 22:57:49 63° E 23:02:53 10° NNE
SeaSat 1 3.9 23:00:01 18° NE 23:00:18 18° NE 23:03:31 10° N
Cosmos 1689 Rocket 2.1 22:59:31 10° N 23:02:24 77° WNW 23:05:16 10° SSW
Cosmos 1553 Rocket 4.0 22:56:09 10° S 23:02:30 90° W 23:08:48 10° N
Cosmos 1408 2.6 22:59:20 10° N 23:02:57 54° E 23:06:33 10° SSE
Meteor 2-15 4.4 22:58:11 10° S 23:04:18 76° E 23:10:26 10° NNE
H-2A R/B 2.7 22:59:49 10° SE 23:04:44 37° ENE 23:09:41 10° N
Cosmos 2360 4.3 22:59:24 10° S 23:04:59 56° ESE 23:10:34 10° NNE
MOS 1 Rocket 3.8 23:03:27 10° NNE 23:07:56 38° E 23:12:38 10° SSE
BREEZE-M R/B 4.3 23:03:15 10° WNW 23:09:36 33° N 23:10:40 26° NNE
Cosmos 44 Rocket 3.2 23:08:59 10° SSW 23:13:38 61° ESE 23:16:15 26° NE
Cosmos 2278 3.9 23:09:30 10° S 23:14:56 49° ESE 23:18:42 20° NE
Lacrosse 5 3.7 23:13:07 10° NNW 23:16:24 17° NNE 23:17:47 15° NNE
Cosmos 2219 4.2 23:13:21 10° NW 23:18:51 48° WSW 23:24:20 10° S
Cosmos 1892 3.5 23:17:48 10° NNW 23:21:37 53° W 23:25:23 10° S
GEOS 3 Rocket 4.4 23:20:43 31° ENE 23:21:50 35° NE 23:26:41 10° NNW
Cosmos 1939 Rocket 3.9 23:19:18 10° S 23:23:06 45° W 23:26:53 10° NNW
ARGOS 3.6 23:21:55 34° E 23:23:13 39° ENE 23:28:14 10° N
Cosmos 1076 Rocket 3.3 23:20:35 10° N 23:24:50 75° E 23:29:06 10° SSE
Cosmos 968 Rocket 4.0 23:20:31 10° NNW 23:25:38 60° WSW 23:30:41 10° S
NOSS 3-4 (A) 4.3 23:19:09 10° NNW 23:25:40 40° NE 23:28:04 32° E
NOSS 3-4 (C) 4.3 23:19:16 10° NNW 23:25:46 40° NE 23:28:08 32° E
Cosmos 2082 3.6 23:20:20 10° NNW 23:26:06 84° ENE 23:31:50 10° SSE
CZ-4B R/B 4.4 23:24:52 10° NNW 23:26:34 14° WNW 23:28:15 10° W
Cosmos 1745 Rocket 4.1 23:24:54 10° N 23:31:13 80° W 23:37:33 10° S
NOSS 3-3 (A) 4.2 23:27:18 10° SW 23:33:03 67° NW 23:38:34 15° NNE
NOSS 3-3 (C) 4.1 23:27:24 10° SW 23:33:10 68° NW 23:38:38 15° NNE
USA 215 4.4 23:32:13 23° NE 23:34:32 28° NNE 23:39:52 10° NW
USA 307 2.7 23:30:21 10° NW 23:34:39 78° NE 23:35:04 69° E
Cosmos 1825 2.0 23:32:48 10° N 23:36:37 88° W 23:37:07 66° S
COSMO-SKYMED 1 4.2 23:33:11 10° N 23:37:09 35° WNW 23:41:06 10° SW
Cosmos 2369 3.9 23:33:47 10° SSW 23:39:29 71° WNW 23:45:09 10° NNE
USA 308 2.7 23:35:20 10° NW 23:39:38 85° NE 23:39:51 79° E
GPS 2-04 Rocket1 4.1 23:37:56 10° SW 23:41:13 29° S 23:41:13 29° S
Helios 1A Rocket 4.1 23:37:47 10° S 23:41:43 44° W 23:45:39 10° NNW
CSL-04 Rocket 3.6 23:39:21 10° SSE 23:44:53 80° ENE 23:50:24 10° NNW
OAO 2 Rocket 4.2 23:41:51 10° WSW 23:46:21 34° S 23:46:58 33° S
YAOGAN 1 3.1 23:43:27 10° S 23:47:42 58° W 23:51:59 10° NNW
ATLAS 2AS CENTAUR R/B 3.2 23:40:39 10° NNW 23:47:44 43° NE 23:48:38 41° ENE
Cosmos 967 Rocket 4.5 23:42:55 10° SSW 23:49:11 60° ESE 23:50:18 52° ENE
Cosmos 2227 Rocket 3.8 23:44:18 10° NW 23:49:23 35° WSW 23:54:25 10° SSW
Cosmos 2263 Rocket 3.0 23:46:08 10° N 23:50:16 35° NNE 23:50:16 35° NNE
CZ-4 R/B 2.6 23:48:11 10° SSW 23:51:50 39° W 23:55:28 10° NNW
Cosmos 1812 Rocket 4.4 23:50:34 10° SSW 23:54:50 50° WNW 23:59:06 10° N
